Вернуться в каталог

NOAA 16 DEB

АктивенSSO
NORAD 41067·DEBRIS·🇺🇸 United States

Запущен Sep 21, 2000 с Vandenberg Space Force Base

Loading…

Ближайшие Пролёты (ближайшие 24 часа)

TLE

СвежийSource: Space-Track

Эпоха: Sep 14, 2026, 19:40 UTC

1 41067U 00055AA  26257.81987540  .00000714  00000-0  36809-3 0  9993
2 41067  98.5141 287.6524 0004630  39.6530 320.4984 14.18172776557518

Отслеживайте NOAA 16 DEB в реальном времени с AllMySat

Download on the App Store